User: anonymous
Location: Columbia
(38.9520°N, 92.3340°W)
Time: 22:28:40
(UTC-05:00)
Language:

Cosmos 2219 Rocket - Orbit

View from above orbital plane
View from above orbital plane
View from above satellite
View from above satellite

Ground track
Ground track

The orbit data is extracted from the following two-line orbital elements,

1 22220U 92076B   14258.87331696 -.00000232  00000-0 -92769-4 0  3984
2 22220 071.0037 015.2356 0013348 354.2507 139.5962 14.16324636128423
Epoch (UTC): 15 September 2014 20:57:34
Eccentricity: 0.0013348
inclination: 71.0037°
perigee height: 828 km
apogee height: 847 km
right ascension of ascending node: 15.2356°
argument of perigee: 354.2507°
revolutions per day: 14.16324636
mean anomaly at epoch: 139.5962°
orbit number at epoch: 12842

The dashed part of the orbit path shows where the satellite is in the earth's shadow,  

DLR